Rbgn^[z[y[W
メイン
   新天体発見情報
     Comet C/2017 T1 (Heinze)
投稿するにはまず登録を

スレッド表示 | 古いものから 前のトピック | 次のトピック | 下へ
投稿者 スレッド
佐藤裕久
投稿日時: 2017-10-23 3:46
モデレータ
登録日: 2005-6-12
居住地: 日本
投稿: 2505
オンライン
Comet C/2017 T1 (Heinze)

Aren Heinze (ハワイ大学)の通報によると、10月2.6日UT、小惑星地球衝突最終警報システム Asteroid 
Terrestrial-impact Last Alert System (ATLAS)調査プログラムのコースに、Mauna LoaにあるATLAS 0.5-m 
f/2.0 Schmidt望遠鏡で得たCCD露出から彗星を発見した。その後同じ望遠鏡で以前に撮影した観測を確認
した。この天体は明らかに彗星活動を示している。p.a.約240°に向かって約10"の尾がある。コマの視直径
は(この彗星のイメージの平均FWHMは近傍の恒星が約3".4であるのに対し)7".2であった。
小惑星センターのNEOCPとPCCP webpageに公表後、佐藤英貴氏(東京都文京区, iTelescope天文台,10月3.5日
UT, 60秒露出7枚のスタック, 0.51-m f/6.8 アストログラフ, Mayhill近郊, ニューメキシコ州, 遠隔操作:
適度な集光のある12" のコマがあり、p.a. 265°に向かって20"の尾がある。6".5の円形範囲で測定したこの
彗星のw-バンド全光度は17.4等であった)らCCD位置観測者によって彗星状と観測された。

発見位置は次のとおり、

     2017 UT             R.A. (2000) Decl.       Mag.   Observer
     Sept.28.60090    8 15 26.52   - 4 02 56.9   18.2   Heinze
          28.60697    8 15 26.77   - 4 02 57.2   18.1     "
          28.61657    8 15 27.33   - 4 02 57.2   18.3     "
          28.62385    8 15 27.67   - 4 02 58.6   17.9     "
     Oct.  2.59791    8 18 57.68   - 4 06 01.3   18.2     "
           2.60749    8 18 58.10   - 4 06 02.2   18.3     "
           2.61727    8 18 58.67   - 4 06 01.7   18.1     "
           2.62465    8 18 59.04   - 4 06 02.6   18.1     "          

放物線軌道要素と位置推算表は次のとおり

Orbital elements:
    C/2017 T1 (Heinze)
T 2018 Feb. 21.41064 TT                                 MPCW
q   0.5794553            (2000.0)            P               Q
                   Peri.   96.93843     +0.14394127     +0.19521677
                   Node   102.19125     -0.47677108     -0.84538709
e   1.0            Incl.   97.01083     +0.86716218     -0.49720326
From 87 observations 2017 Sept. 28-Oct. 16.

Ephemeris:
    C/2017 T1 (Heinze)
Date    TT    R. A. (2000) Decl.     Delta      r     Elong.  Phase   m1
2017 09 16    08 04 02.4 -03 54 41   3.2432  2.7580    53.0    16.9  19.5
...
2017 10 01    08 17 33.4 -04 04 46   2.8612  2.5600    62.6    20.3  18.9
...
2017 10 09    08 24 28.2 -04 10 50   2.6447  2.4522    68.0    22.2  18.5
...
2017 10 15    08 29 28.5 -04 14 45   2.4772  2.3703    72.2    23.6  18.2
2017 10 16    08 30 17.5 -04 15 17   2.4489  2.3565    72.9    23.8  18.2
2017 10 17    08 31 06.1 -04 15 47   2.4204  2.3428    73.6    24.1  18.1
...
2017 10 23    08 35 50.1 -04 17 41   2.2478  2.2595    77.9    25.5  17.8
...
2017 10 31    08 41 44.3 -04 15 39   2.0127  2.1469    83.9    27.4  17.3
...
2017 11 15    08 51 06.0 -03 44 16   1.5610  1.9307    95.8    30.6  16.3

(CBET 4444、MPEC 2017-U15)
スレッド表示 | 古いものから 前のトピック | 次のトピック | トップ

投稿するにはまず登録を
 
© 1999 Tsutomu Seki.